Location: Cluj-Napoca
(46.7712°N, 23.6236°E)
Time: 07:00:13
(UTC+02:00)

ISS - Pass Details

Date: 25 January 2021
Orbit: 417 x 422 km, 51.6° (Epoch: 05 March)

Event Time Altitude Azimuth Distance (km) Brightness Sun altitude
Rises 18:59:27 0° 270° (W) 2,370 1.7 -17.2°
Reaches altitude 10° 19:01:38 10° 279° (W) 1,507 0.2 -17.5°
Maximum altitude 19:04:50 39° 350° (N) 653 -2.8 -18.1°
Enters shadow 19:05:25 35° 16° (NNE) 698 -2.9 -18.2°
